Location: Newark
(46.7000°N, 60.6000°W)
Time: 17:07:03
(UTC+00:00)

Courier 1B Rocket - Visible Passes

Search period start: 21 October 2020 00:00
Search period end: 31 October 2020 00:00
Orbit: 920 x 1202 km, 28.2° (Epoch: 20 October)

Date Brightness Start Highest point End Pass type
(mag) Time Alt. Az. Time Alt. Az. Time Alt. Az.
24 Oct 7.3 23:19:23 10° S 23:20:13 11° SSE 23:20:13 11° SSE visible
26 Oct 7.3 00:08:16 10° SSW 00:09:21 12° SSW 00:09:21 12° SSW visible
26 Oct 7.1 23:08:31 10° S 23:11:44 13° SSE 23:12:06 13° SSE visible
27 Oct 7.3 22:10:28 10° SSE 22:11:03 10° SSE 22:11:38 10° SSE visible
27 Oct 7.1 23:58:45 10° SSW 00:01:11 15° SSW 00:01:11 15° SSW visible
28 Oct 7.0 22:58:37 10° SSW 23:02:27 15° SSE 23:03:52 14° SSE visible
29 Oct 7.6 00:50:12 10° SW 00:50:14 10° SW 00:50:14 10° SW visible
29 Oct 7.2 21:59:01 10° S 22:01:45 12° SSE 22:04:33 10° SE visible
29 Oct 7.0 23:49:32 10° SW 23:52:55 17° S 23:52:55 17° S visible
30 Oct 7.0 22:49:09 10° SSW 22:53:13 16° S 22:55:36 14° SSE visible
